| time (UTC) | temp C | wind direction | speed KPH | gust KPH | rain 1hr cm | rain 24hr cm | rain mn cm | humidity % | barometer mb |
| 20260504050004 | 17 | 257 | 0.0 | 3.2 | 0.00 | 0.00 | 0.00 | 67 | 1007.9 |
| 20260504044504 | 17 | 303 | 0.0 | 1.6 | 0.00 | 0.00 | 0.00 | 67 | 1008.0 |
| 20260504043004 | 17 | 1 | 0.0 | 6.4 | 0.00 | 0.00 | 0.00 | 66 | 1008.0 |
| 20260504041504 | 18 | 284 | 0.0 | 6.4 | 0.00 | 0.00 | 0.00 | 66 | 1007.9 |
| 20260504040004 | 17 | 1 | 0.0 | 14.5 | 0.00 | 0.00 | 0.00 | 66 | 1007.9 |
| 20260504034504 | 17 | 321 | 0.0 | 1.6 | 0.00 | 0.03 | 0.00 | 65 | 1008.0 |
| 20260504033004 | 17 | 233 | 0.0 | 8.0 | 0.00 | 0.03 | 0.00 | 65 | 1008.2 |
| 20260504031504 | 17 | 355 | 0.0 | 12.9 | 0.00 | 0.03 | 0.00 | 66 | 1008.5 |
| 20260504030005 | 17 | 1 | 0.0 | 4.8 | 0.00 | 0.03 | 0.00 | 64 | 1008.4 |
| 20260504024504 | 17 | 1 | 0.0 | 1.6 | 0.00 | 0.03 | 0.00 | 66 | 1008.5 |
| 20260504023004 | 17 | 1 | 1.6 | 17.7 | 0.00 | 0.03 | 0.00 | 66 | 1008.7 |
| 20260504021504 | 17 | 353 | 1.6 | 17.7 | 0.00 | 0.03 | 0.00 | 67 | 1008.9 |
| 20260504020004 | 17 | 265 | 1.6 | 16.1 | 0.00 | 0.03 | 0.00 | 67 | 1009.1 |
| 20260504014504 | 17 | 270 | 3.2 | 19.3 | 0.00 | 0.03 | 0.00 | 69 | 1009.4 |
| 20260504013004 | 17 | 264 | 6.4 | 24.1 | 0.00 | 0.03 | 0.00 | 68 | 1009.5 |
| 20260504011505 | 17 | 269 | 3.2 | 22.5 | 0.00 | 0.05 | 0.00 | 70 | 1009.5 |
| 20260504010005 | 16 | 351 | 4.8 | 17.7 | 0.00 | 0.10 | 0.00 | 72 | 1009.5 |
| 20260504004504 | 16 | 1 | 1.6 | 17.7 | 0.00 | 0.28 | 0.00 | 73 | 1009.6 |
| 20260504003005 | 16 | 1 | 1.6 | 17.7 | 0.00 | 0.30 | 0.00 | 74 | 1009.6 |
| 20260504001504 | 16 | 1 | 1.6 | 14.5 | 0.00 | 0.41 | 0.00 | 74 | 1009.7 |
| 20260504000005 | 15 | 338 | 1.6 | 14.5 | 0.00 | 0.46 | 0.00 | 75 | 1009.6 |
| 20260503234505 | 15 | 266 | 1.6 | 20.9 | 0.00 | 0.58 | 0.00 | 76 | 1009.6 |
| 20260503233004 | 15 | 269 | 1.6 | 12.9 | 0.00 | 0.61 | 0.00 | 78 | 1009.8 |
| 20260503231504 | 14 | 349 | 1.6 | 16.1 | 0.00 | 0.61 | 0.00 | 79 | 1009.8 |
| 20260503230004 | 14 | 347 | 0.0 | 19.3 | 0.00 | 0.61 | 0.00 | 79 | 1010.1 |
| 20260503224505 | 14 | 332 | 1.6 | 12.9 | 0.00 | 0.61 | 0.00 | 80 | 1010.0 |
| 20260503223004 | 13 | 337 | 0.0 | 20.9 | 0.00 | 0.61 | 0.00 | 80 | 1009.9 |
| 20260503221504 | 13 | 266 | 0.0 | 16.1 | 0.00 | 0.61 | 0.00 | 80 | 1010.1 |
| 20260503220005 | 13 | 345 | 0.0 | 9.7 | 0.00 | 0.61 | 0.00 | 81 | 1009.8 |
| 20260503214505 | 13 | 351 | 0.0 | 8.0 | 0.00 | 0.61 | 0.00 | 81 | 1009.9 |
| 20260503213004 | 13 | 240 | 0.0 | 3.2 | 0.00 | 0.61 | 0.00 | 80 | 1009.9 |
| 20260503211504 | 12 | 337 | 0.0 | 4.8 | 0.00 | 0.61 | 0.00 | 79 | 1009.9 |
| 20260503210005 | 12 | 1 | 0.0 | 4.8 | 0.00 | 0.61 | 0.00 | 79 | 1009.9 |
| 20260503204504 | 12 | 275 | 0.0 | 3.2 | 0.00 | 0.61 | 0.00 | 79 | 1009.7 |
| 20260503203004 | 12 | 346 | 0.0 | 1.6 | 0.00 | 0.61 | 0.00 | 81 | 1009.7 |
| 20260503201504 | 12 | 1 | 0.0 | 1.6 | 0.00 | 0.61 | 0.00 | 81 | 1009.7 |
| 20260503200005 | 13 | 349 | 0.0 | 1.6 | 0.00 | 0.61 | 0.00 | 81 | 1009.5 |
| 20260503194505 | 12 | 292 | 0.0 | 3.2 | 0.00 | 0.61 | 0.00 | 83 | 1009.5 |
| 20260503193004 | 12 | 324 | 0.0 | 1.6 | 0.00 | 0.61 | 0.00 | 84 | 1009.7 |
| 20260503191504 | 12 | 273 | 0.0 | 6.4 | 0.00 | 0.61 | 0.00 | 84 | 1009.8 |
| 20260503190004 | 12 | 284 | 0.0 | 3.2 | 0.00 | 0.61 | 0.00 | 85 | 1010.0 |
| 20260503184505 | 12 | 351 | 0.0 | 8.0 | 0.00 | 0.61 | 0.00 | 85 | 1010.1 |
| 20260503183004 | 12 | 1 | 0.0 | 3.2 | 0.00 | 0.61 | 0.00 | 86 | 1010.1 |
| 20260503181505 | 12 | 356 | 0.0 | 3.2 | 0.00 | 0.61 | 0.00 | 86 | 1010.2 |
| 20260503180005 | 12 | 1 | 0.0 | 1.6 | 0.00 | 0.61 | 0.00 | 87 | 1010.3 |
| 20260503174504 | 12 | 251 | 0.0 | 1.6 | 0.00 | 0.61 | 0.00 | 88 | 1010.4 |
| 20260503173005 | 12 | 279 | 0.0 | 3.2 | 0.00 | 0.61 | 0.00 | 88 | 1010.6 |
| 20260503171504 | 12 | 0 | 0.0 | 0.0 | 0.00 | 0.61 | 0.00 | 88 | 1010.6 |
| 20260503081504 | 13 | 0 | 0.0 | 0.0 | 0.00 | 0.61 | 0.61 | 76 | 1009.9 |
| 20260503071504 | 16 | 0 | 0.0 | 0.0 | 0.00 | 0.61 | 0.61 | 68 | 1009.7 |